Flag for Germany Weather past 2 weeks in Norderstedt, Schleswig-Holstein, Germany

Now
41 °F

Partly sunny.


Feels Like: 35 °F
Forecast: 39 / 49 °F
Wind: 10 mph from Southwest

Location: Hamburg-Fuhlsbuettel

Current Time: Mar 27, 2015 at 7:05:36 AM

Latest Report: Mar 27, 2015 at 6:20 AM


Visibility: 4 mi

Pressure: 29.74 "Hg

Humidity: 93%

Dew point: 39 °F

Location of NorderstedtLocation

Historic Weather in Norderstedt — Graph

°F

Norderstedt temperature yesterday

Maximum temperature yesterday: 45 °F (at 12:20 AM)
Minimum temperature yesterday: 41 °F (at 5:20 AM)
Average temperature yesterday: 43 °F

Past Weeks' High & Low Weather Summary

 TemperatureHumidityPressure
High59 °F (Mar 17, 2:50 PM)100% (Mar 12, 5:20 AM)30.54 "Hg (Mar 12, 5:20 AM)
Low28 °F (Mar 12, 5:50 AM)27% (Mar 19, 2:50 PM)29.65 "Hg (Mar 25, 5:20 PM)
Average43 °F73%30.19 "Hg
* Reported Mar 12 5:20 AM — Mar 27 5:50 AM, Norderstedt, Weather by CustomWeather, © 2015

Note: Actual official high and low records may vary slightly from our data, if they occured in-between our weather recording intervals... More about our weather records

Advertising

Norderstedt weather history for previous 24 hours

 ConditionsComfort  
Time TempWeatherWind HumidityBarometerVisibility
5:50 AM
Fri, Mar 27
41 °FPassing clouds.10 mph93%29.71 "Hg4 mi
5:20 AM41 °FLight rain. Passing clouds.7 mph93%29.71 "Hg4 mi
4:20 AM41 °FPassing clouds.9 mph93%29.71 "Hg4 mi
3:50 AM41 °FLight rain. Passing clouds.8 mph93%29.71 "Hg4 mi
3:20 AM41 °FPassing clouds.10 mph87%29.71 "Hg6 mi
2:50 AM41 °FPassing clouds.10 mph87%29.71 "Hg6 mi
2:20 AM41 °FPassing clouds.10 mph87%29.71 "Hg6 mi
1:50 AM41 °FPassing clouds.9 mph87%29.71 "Hg6 mi
1:20 AM41 °FLight rain. Passing clouds.9 mph87%29.71 "Hg6 mi
12:50 AM41 °FLight rain. Partly cloudy.8 mph87%29.71 "Hg6 mi
12:20 AM41 °FLight rain. Passing clouds.9 mph87%29.71 "Hg6 mi
11:50 PM
Thu, Mar 26
41 °FLight rain. Partly cloudy.7 mph87%29.71 "HgN/A
11:20 PM41 °FLight rain. Passing clouds.6 mph87%29.71 "HgN/A
10:50 PM41 °FLight rain. Passing clouds.6 mph87%29.71 "HgN/A
10:20 PM41 °FLight rain. Passing clouds.8 mph87%29.71 "HgN/A
9:50 PM43 °FLight rain. Passing clouds.8 mph76%29.74 "HgN/A
9:20 PM43 °FMostly cloudy.7 mph76%29.74 "HgN/A
8:50 PM43 °FOvercast.8 mph71%29.74 "HgN/A
8:20 PM43 °FPassing clouds.7 mph71%29.74 "HgN/A
7:50 PM43 °FPassing clouds.8 mph71%29.74 "HgN/A
7:20 PM43 °FPassing clouds.7 mph71%29.74 "HgN/A
6:50 PM43 °FPartly cloudy.7 mph66%29.74 "HgN/A
6:20 PM43 °FBroken clouds.10 mph66%29.71 "HgN/A
5:50 PM45 °FPartly sunny.9 mph66%29.71 "HgN/A
5:20 PM45 °FPartly sunny.10 mph66%29.71 "HgN/A
4:50 PM45 °FPartly sunny.9 mph61%29.71 "HgN/A
4:20 PM45 °FPartly sunny.8 mph61%29.71 "HgN/A
3:50 PM45 °FPartly sunny.7 mph66%29.71 "HgN/A
3:20 PM45 °FPartly sunny.9 mph61%29.71 "HgN/A
2:50 PM45 °FPartly sunny.7 mph66%29.71 "HgN/A
2:20 PM45 °FPartly sunny.6 mph66%29.71 "HgN/A
1:50 PM45 °FPartly sunny.7 mph61%29.74 "HgN/A
1:20 PM45 °FPartly sunny.8 mph66%29.74 "HgN/A
12:50 PM45 °FPartly sunny.8 mph66%29.74 "HgN/A
12:20 PM45 °FPartly sunny.8 mph66%29.74 "HgN/A
11:50 AM43 °FPartly sunny.9 mph71%29.74 "HgN/A
11:20 AM43 °FPartly sunny.8 mph76%29.74 "HgN/A
10:50 AM43 °FPartly sunny.7 mph76%29.74 "HgN/A
10:20 AM43 °FPartly sunny.7 mph76%29.74 "HgN/A
9:50 AM41 °FPartly sunny.7 mph81%29.74 "HgN/A
9:20 AM41 °FPartly sunny.10 mph81%29.74 "HgN/A
8:50 AM41 °FPartly sunny.10 mph81%29.74 "HgN/A
8:20 AM41 °FPartly sunny.12 mph81%29.74 "HgN/A
7:50 AM41 °FPartly sunny.10 mph81%29.74 "HgN/A
7:20 AM41 °FPartly sunny.8 mph87%29.71 "HgN/A
Weather by CustomWeather, © 2015

See weather overviewHow to use our weather pages